Temperature
19 18 18 17 17 16 15 15 14 14 14 13 13 13 13 13 13 13 13 13 13 13 13 13 13 14 14 14 14 14 15 15 15 15 16 16 17 17 17 17 17 17 18
18 18 17 17 17 16 15 15 14 14 13 13 13 13 13 12 13 13 13 13 13 13 13 13 13 13 13 14 14 14 14 15 15 15 15 16 17 17 17 17 17 17 18
18 18 17 17 17 16 15 15 14 14 13 13 13 13 13 13 13 13 12 12 12 12 12 13 13 13 13 13 13 14 14 14 15 14 15 15 16 16 17 17 17 17 17
19 18 18 17 17 16 15 15 14 14 13 13 13 13 12 12 12 12 12 12 12 12 12 12 12 12 13 13 13 13 14 14 14 14 14 14 15 15 16 17 17 17 17
19 18 18 17 17 16 16 15 14 14 13 13 13 12 12 12 12 12 12 12 12 12 12 12 12 12 12 12 13 13 13 13 14 14 14 14 14 15 15 16 16 17 17
19 19 18 17 17 16 16 15 14 14 13 13 13 13 12 12 12 12 12 12 12 12 12 12 12 12 12 12 12 12 13 13 13 13 14 14 14 14 14 15 15 16 17
19 18 18 17 17 16 16 15 15 14 14 13 13 13 12 12 12 12 12 12 12 12 12 12 12 12 12 12 12 12 12 13 13 13 13 13 14 14 14 14 15 15 16
19 19 18 18 17 16 16 15 15 14 14 14 13 13 13 12 12 12 12 12 11 11 11 11 11 12 12 12 12 12 12 12 13 13 13 13 13 13 14 14 14 14 15
19 19 18 18 17 17 16 16 15 15 14 14 13 13 13 12 12 12 12 12 11 11 11 11 11 11 11 12 12 12 12 12 12 12 13 13 13 13 13 13 14 14 14
19 19 18 18 17 17 16 16 15 15 15 14 14 13 13 12 12 12 12 12 11 11 11 11 11 11 11 11 11 11 12 12 12 12 12 12 13 13 13 13 13 13 13
20 19 19 18 18 17 16 16 16 15 15 14 14 13 13 13 12 12 12 12 11 11 11 11 11 11 11 11 11 11 11 12 12 12 12 12 12 13 13 13 13 13 13
20 19 19 18 18 17 17 16 16 15 15 15 14 14 13 13 13 12 12 12 12 11 11 11 11 11 11 11 11 11 11 11 12 12 12 12 12 12 12 13 13 13 13
20 19 19 18 18 17 17 17 16 16 15 15 14 14 14 13 13 13 12 12 12 12 11 11 11 11 11 11 11 11 11 11 11 11 12 12 12 12 12 12 13 13 13
20 20 19 19 18 18 17 17 16 16 15 15 15 14 14 14 13 13 13 12 12 12 12 11 11 11 11 11 11 11 11 11 11 11 11 11 11 12 12 12 12 12 12
20 20 19 19 18 18 17 17 17 16 16 15 15 15 14 14 14 13 13 13 13 12 12 12 11 11 11 11 11 11 11 11 11 11 11 11 11 11 11 12 12 12 12
20 20 20 19 19 18 18 17 17 17 16 16 16 15 15 15 14 14 14 13 13 13 12 12 12 12 11 11 11 11 11 11 11 11 11 11 11 11 11 11 12 12 12
21 20 20 19 19 18 18 18 17 17 17 16 16 16 15 15 15 14 14 14 13 13 13 12 12 12 12 11 11 11 11 11 11 11 11 11 11 11 11 12 12 12 12
21 20 20 19 19 19 18 18 18 17 17 17 16 16 16 15 15 15 15 14 14 14 13 13 12 12 12 12 11 11 11 11 11 11 11 11 11 11 11 12 12 12 12
21 20 20 19 19 19 18 18 18 17 17 17 16 16 16 16 15 15 15 14 14 14 14 13 13 13 12 12 12 11 11 11 11 11 11 11 11 11 11 11 12 12 12
20 20 19 19 19 19 18 18 18 17 17 17 17 16 16 16 15 15 15 15 14 14 14 14 13 13 13 12 12 12 12 12 12 11 11 11 11 11 11 11 11 12 12
20 19 19 19 19 18 18 18 18 17 17 17 16 16 16 16 15 15 15 15 14 14 14 14 14 13 13 13 12 12 12 12 12 11 11 11 11 11 11 11 11 11 12
19 19 19 18 18 18 18 18 17 17 17 17 16 16 16 16 15 15 15 15 15 14 14 14 14 14 13 13 13 12 12 12 12 12 11 11 11 11 11 11 11 11 11
19 19 19 18 18 18 18 17 17 17 17 16 16 16 16 15 15 15 15 15 15 14 14 14 14 14 14 13 13 13 12 12 12 12 11 11 11 11 11 11 11 11 11
19 19 18 18 18 17 17 17 17 16 16 16 16 16 15 15 15 15 14 14 14 14 14 14 14 14 14 14 13 13 13 12 12 12 12 11 11 11 11 11 11 11 11
19 18 18 18 17 17 17 17 16 16 16 16 15 15 15 14 14 14 14 13 13 13 13 13 13 13 14 14 13 13 13 12 12 12 12 12 11 11 11 11 11 11 11
18 18 17 17 17 16 16 16 16 15 15 15 14 14 13 13 13 13 13 13 13 13 13 13 13 13 13 13 13 13 13 12 12 12 12 11 11 11 11 11 11 11 11
Wind_Speed
7 7 7 7 6 5 5 4 3 2 2 2 2 3 3 3 4 3 5 6 6 6 4 4 4 4 2 3 3 2 2 2 1 1 2 3 4 4 4 4 4 6 8
8 7 7 6 6 6 5 4 4 2 1 0 0 1 2 2 2 3 4 6 6 6 4 4 4 4 3 4 3 1 1 2 1 1 0 2 2 3 5 5 5 6 5
12 9 8 7 6 6 6 5 4 3 1 1 1 2 3 3 4 4 4 5 6 5 4 4 4 4 3 3 3 2 1 2 2 2 2 2 3 2 2 4 5 5 5
10 9 9 8 7 7 6 5 5 3 2 1 2 1 1 2 3 3 4 5 6 5 5 4 4 4 3 3 3 2 1 1 2 1 2 3 2 1 2 2 2 5 6
11 11 10 9 8 7 6 6 5 3 2 1 1 1 0 2 2 3 4 5 5 5 5 4 4 4 3 3 4 3 2 1 2 2 1 1 1 2 2 3 2 2 3
10 10 9 8 7 6 6 5 5 3 3 1 1 1 1 1 2 3 4 4 4 4 5 4 4 4 3 4 3 3 3 2 2 2 2 2 2 2 3 4 3 3 3
10 9 9 8 8 7 7 6 5 4 4 2 1 2 2 2 1 2 2 3 3 3 5 4 4 4 4 4 3 3 3 2 2 2 3 3 4 3 3 3 3 3 3
9 10 10 10 9 9 8 7 6 5 5 4 3 2 3 2 2 2 2 2 3 4 4 5 5 5 4 4 2 2 3 3 3 3 3 3 4 3 4 4 3 3 3
10 10 10 9 9 9 8 8 7 6 5 5 4 3 3 2 2 3 2 3 3 4 5 5 5 5 4 4 3 2 3 3 3 3 4 3 3 3 4 4 4 4 4
9 9 9 9 8 8 7 7 7 7 6 5 4 3 3 3 3 2 3 3 4 4 4 5 4 4 4 4 3 3 3 3 3 3 4 3 3 3 4 4 4 5 5
10 10 9 8 8 7 7 6 6 6 5 5 4 3 3 3 2 2 2 2 3 3 3 4 4 4 4 4 4 3 4 4 4 4 4 4 4 3 4 4 4 5 5
10 9 9 8 7 7 6 6 7 7 6 6 4 3 3 1 2 2 2 2 2 3 3 3 3 4 4 4 3 4 4 4 5 5 5 5 4 3 3 3 4 4 5
9 8 8 8 8 7 7 6 7 7 7 6 5 3 2 2 3 3 2 2 2 3 3 3 4 4 4 4 4 3 4 4 4 5 5 5 4 4 3 3 4 4 4
9 9 8 8 8 8 7 7 7 7 7 6 5 4 4 4 4 3 2 2 2 3 4 4 4 4 4 4 4 4 4 5 5 5 5 5 5 5 5 4 4 4 4
8 10 10 9 8 7 7 7 7 7 6 6 6 6 6 5 4 3 3 3 3 4 4 4 5 5 5 4 4 4 4 5 6 6 6 6 6 7 5 4 4 4 4
10 10 10 9 9 9 8 8 7 7 7 7 7 7 6 5 5 5 4 3 4 4 4 4 5 5 5 7 7 5 4 5 5 7 7 7 6 7 7 8 7 5 5
9 9 10 10 10 10 9 9 9 7 7 7 7 7 7 6 6 5 4 5 5 4 5 5 5 6 8 10 9 7 4 4 5 6 6 6 5 6 4 7 7 7 8
8 8 8 8 8 8 8 8 7 7 7 7 7 7 7 7 6 5 6 6 5 5 5 6 6 6 8 10 9 8 4 4 5 5 5 5 6 6 6 5 5 5 6
8 7 7 6 6 7 7 7 7 6 6 7 7 8 8 7 7 7 7 6 5 6 6 6 6 7 9 10 9 7 3 4 6 6 5 5 5 9 8 5 6 7 6
6 6 5 5 5 5 7 7 6 5 6 7 7 7 7 7 8 8 8 6 5 7 6 7 7 7 8 10 10 7 3 4 5 5 5 7 7 9 8 5 5 7 7
6 7 7 5 4 5 7 6 4 3 5 5 4 4 5 7 8 7 6 6 6 6 6 7 7 7 8 10 10 8 4 4 4 4 4 5 10 11 11 8 6 9 8
7 7 7 5 3 5 7 5 2 3 2 1 1 2 3 4 4 5 6 6 6 6 7 6 7 6 6 8 9 10 9 7 4 5 5 6 10 12 12 8 8 10 8
7 6 8 6 4 4 5 4 1 1 0 1 1 3 3 3 3 4 5 5 4 5 6 5 6 7 5 6 10 10 10 8 5 5 7 9 11 12 9 8 10 7 4
7 6 8 8 5 5 5 4 2 2 3 3 3 3 4 4 4 3 3 4 4 4 5 5 6 6 5 5 5 4 5 6 5 5 6 9 10 8 8 7 6 4 4
6 7 8 8 6 6 6 5 5 4 5 4 4 4 4 4 5 4 4 4 4 4 4 5 5 5 6 7 8 5 4 4 4 3 3 3 4 5 5 5 4 4 3
8 9 9 9 7 6 6 6 5 5 5 5 4 4 4 4 4 4 5 6 5 7 5 5 4 4 7 8 7 8 8 6 3 1 3 4 5 5 6 6 5 4 4
Wind_Direction
169 161 154 141 127 114 111 111 94 80 66 38 15 358 343 335 343 341 352 355 355 353 352 350 345 346 337 311 303 288 277 260 215 240 282 268 230 218 224 219 215 218 216
156 158 150 144 138 130 122 118 115 114 95 86 275 274 293 300 309 327 341 347 347 344 345 348 338 339 338 338 334 328 302 277 188 173 237 301 308 251 229 215 219 223 210
166 166 157 154 145 141 146 140 141 134 123 83 37 9 6 352 350 343 338 326 334 339 338 335 336 342 345 330 322 316 271 270 266 196 183 197 242 283 272 229 228 224 214
164 165 161 161 161 165 160 152 155 158 163 109 77 56 12 327 298 301 316 323 333 338 341 340 342 342 340 329 316 328 286 235 252 263 228 217 189 219 306 297 245 230 221
168 169 169 171 172 171 168 168 165 182 200 168 140 133 252 275 301 321 338 339 336 337 338 341 343 338 331 322 317 326 314 259 224 220 229 242 224 200 210 270 294 282 245
169 169 170 165 170 176 175 174 174 201 220 208 141 157 200 272 338 334 337 335 332 330 332 331 337 331 324 316 314 318 318 292 263 242 217 204 208 206 199 232 257 268 266
168 168 171 175 179 184 190 185 184 204 217 211 198 186 194 192 226 279 309 322 322 316 317 327 326 325 322 317 319 328 324 309 293 268 244 226 222 210 200 217 240 255 273
179 180 183 184 188 193 194 189 193 205 210 212 219 206 197 193 228 253 264 282 281 286 300 317 321 324 327 334 333 330 319 322 305 287 270 249 240 221 208 206 211 251 269
190 189 188 188 191 195 199 196 194 202 207 211 210 203 221 219 238 263 273 283 292 300 317 324 325 331 337 341 346 329 318 319 309 294 283 264 250 235 224 214 204 209 242
193 189 188 192 194 198 201 194 192 196 202 204 208 203 221 233 240 252 282 291 307 319 328 336 338 342 343 343 342 324 318 323 313 300 299 288 268 254 237 224 218 210 218
193 191 193 195 192 193 193 193 196 192 195 200 205 204 226 232 231 242 269 279 303 320 330 332 339 339 340 340 344 330 322 323 316 317 309 295 283 266 252 236 222 216 214
193 190 190 190 190 193 195 195 195 192 199 201 201 207 212 206 218 247 268 281 304 316 323 331 336 329 331 332 330 323 327 320 314 310 311 303 300 283 261 242 237 229 221
186 184 185 191 196 200 201 198 195 197 201 197 198 206 213 209 222 240 260 283 298 313 323 324 323 314 314 317 309 307 311 312 309 306 303 299 301 292 279 258 244 240 239
183 183 192 201 205 204 201 199 201 201 197 193 194 204 216 213 216 224 240 257 274 291 302 300 298 294 299 301 295 301 304 307 306 303 298 294 284 275 274 266 251 243 241
192 192 197 203 206 206 205 202 203 202 193 187 198 212 216 212 211 223 238 255 272 278 283 292 297 297 291 279 276 283 291 301 306 307 303 298 294 287 277 266 253 241 241
199 199 198 198 201 203 202 201 204 203 190 190 205 211 210 211 217 228 237 254 268 278 284 288 288 292 288 292 289 279 277 291 298 302 304 303 297 305 308 301 289 260 238
198 195 196 199 200 201 197 198 203 195 190 199 210 212 211 217 226 231 234 247 254 261 274 280 278 278 282 288 292 287 276 282 289 294 300 306 310 315 303 302 303 294 275
187 188 192 197 202 200 195 196 189 186 194 205 215 216 214 222 229 230 240 247 246 253 261 268 270 272 281 286 289 288 282 283 291 293 294 294 300 302 301 295 293 286 279
180 184 185 185 187 190 187 175 180 188 199 214 222 223 217 222 229 234 243 244 244 253 255 259 263 265 277 282 281 277 272 284 295 299 300 298 294 301 308 302 298 298 291
160 162 156 144 155 178 163 159 177 188 216 229 231 230 219 218 227 235 241 241 237 249 260 265 261 256 264 274 274 263 241 273 288 299 302 304 304 307 309 294 290 293 292
146 137 128 129 151 151 136 139 149 206 238 238 236 237 232 231 235 241 244 245 248 257 263 269 272 264 260 269 267 251 219 238 268 285 295 300 309 311 309 301 275 271 280
137 131 122 118 116 128 129 129 160 251 244 216 231 257 261 259 257 251 261 259 255 262 268 271 281 276 266 259 260 250 235 226 235 261 274 286 304 307 307 303 289 288 288
144 133 127 114 90 92 114 117 314 312 72 63 321 304 306 299 292 277 278 282 269 260 268 267 272 280 277 267 257 254 247 240 234 252 268 286 300 309 305 300 304 304 288
145 135 124 115 98 77 76 76 29 45 74 52 6 351 343 328 321 308 291 286 282 275 274 272 271 276 279 271 260 252 252 251 256 268 285 298 302 301 292 297 303 294 280
138 132 128 121 108 87 69 49 39 57 66 50 25 5 354 340 331 324 303 291 275 262 264 269 263 270 283 272 244 223 225 223 237 264 297 306 313 317 313 305 297 292 292
132 124 120 118 110 92 69 44 37 58 69 51 24 6 354 345 340 334 333 326 323 332 339 335 315 279 275 291 274 238 230 226 222 220 283 295 296 293 295 298 299 290 282
Height
1526 1527 1528 1527 1527 1526 1525 1524 1523 1521 1519 1517 1515 1514 1512 1511 1509 1508 1506 1505 1503 1501 1500 1499 1498 1497 1497 1497 1497 1497 1498 1499 1500 1501 1502 1503 1504 1506 1508 1511 1513 1516 1518
1524 1525 1526 1526 1525 1525 1524 1523 1521 1520 1518 1516 1515 1513 1512 1510 1509 1507 1506 1504 1502 1500 1499 1497 1496 1495 1495 1495 1495 1495 1495 1496 1497 1498 1499 1500 1502 1502 1504 1507 1509 1512 1515
1521 1523 1524 1524 1524 1524 1523 1522 1521 1519 1518 1516 1515 1513 1512 1510 1508 1507 1505 1503 1501 1499 1498 1496 1495 1494 1493 1493 1493 1493 1493 1494 1495 1496 1498 1499 1498 1499 1501 1502 1505 1508 1510
1519 1521 1522 1522 1523 1522 1522 1521 1520 1519 1517 1516 1514 1513 1511 1509 1508 1506 1504 1502 1501 1499 1497 1495 1494 1493 1492 1491 1491 1491 1491 1492 1492 1494 1495 1497 1497 1499 1498 1499 1501 1504 1506
1517 1519 1520 1521 1521 1521 1521 1520 1519 1518 1517 1515 1514 1512 1511 1509 1508 1506 1504 1502 1500 1498 1496 1494 1493 1492 1491 1490 1489 1489 1489 1489 1490 1491 1492 1493 1495 1496 1497 1497 1499 1500 1502
1516 1517 1519 1519 1520 1520 1520 1519 1518 1517 1516 1515 1513 1512 1510 1509 1507 1505 1503 1501 1499 1497 1495 1494 1492 1491 1489 1489 1488 1487 1487 1487 1488 1488 1489 1490 1491 1493 1494 1495 1495 1496 1498
1514 1515 1516 1517 1518 1518 1518 1518 1517 1516 1515 1514 1513 1511 1510 1508 1506 1504 1502 1500 1498 1496 1494 1493 1491 1490 1488 1487 1486 1486 1485 1485 1485 1486 1486 1487 1488 1489 1491 1492 1492 1493 1494
1512 1513 1514 1515 1516 1517 1517 1517 1516 1515 1514 1513 1512 1511 1509 1508 1506 1504 1502 1500 1498 1496 1494 1492 1490 1489 1487 1486 1485 1484 1484 1483 1483 1483 1483 1484 1485 1486 1487 1488 1489 1489 1490
1509 1511 1512 1513 1514 1515 1515 1515 1515 1514 1513 1512 1511 1510 1508 1507 1505 1503 1501 1499 1497 1495 1493 1491 1489 1487 1486 1485 1483 1482 1482 1481 1481 1481 1481 1481 1481 1482 1483 1484 1486 1487 1486
1507 1509 1510 1511 1512 1513 1513 1513 1513 1513 1512 1511 1510 1509 1507 1506 1504 1502 1500 1498 1496 1494 1492 1490 1488 1487 1485 1483 1482 1480 1480 1479 1478 1478 1478 1478 1478 1478 1479 1480 1481 1482 1483
1504 1506 1508 1509 1510 1511 1511 1512 1512 1511 1511 1510 1509 1508 1506 1505 1503 1501 1499 1497 1495 1493 1491 1489 1487 1485 1484 1482 1480 1479 1477 1476 1476 1475 1475 1475 1475 1475 1475 1476 1476 1477 1478
1502 1504 1506 1507 1508 1509 1510 1510 1510 1510 1509 1509 1508 1506 1505 1503 1502 1500 1498 1496 1494 1492 1490 1488 1486 1484 1482 1481 1479 1477 1475 1474 1473 1472 1472 1472 1471 1471 1471 1471 1472 1472 1473
1500 1502 1504 1505 1506 1507 1508 1508 1508 1508 1508 1507 1506 1505 1504 1502 1500 1499 1497 1495 1493 1491 1489 1487 1485 1483 1481 1479 1477 1475 1474 1472 1471 1470 1469 1468 1468 1468 1467 1467 1468 1468 1469
1497 1499 1501 1502 1504 1505 1505 1506 1506 1506 1506 1506 1505 1504 1503 1501 1499 1497 1496 1494 1492 1490 1488 1486 1484 1482 1480 1478 1476 1474 1472 1470 1468 1467 1466 1465 1465 1464 1464 1464 1464 1464 1465
1495 1496 1498 1500 1501 1502 1503 1504 1504 1504 1504 1504 1503 1502 1501 1500 1498 1496 1495 1493 1491 1489 1487 1485 1483 1481 1478 1476 1474 1472 1470 1468 1466 1465 1463 1462 1462 1461 1461 1460 1460 1460 1460
1492 1494 1495 1497 1498 1499 1501 1501 1502 1502 1503 1502 1502 1501 1500 1499 1497 1496 1494 1492 1490 1488 1486 1484 1482 1479 1477 1475 1473 1471 1468 1466 1464 1462 1461 1460 1459 1458 1457 1457 1457 1457 1456
1489 1491 1492 1494 1495 1497 1498 1499 1500 1500 1501 1500 1500 1499 1498 1497 1496 1494 1493 1491 1489 1487 1485 1483 1481 1478 1476 1474 1472 1469 1467 1465 1463 1461 1459 1457 1456 1455 1454 1453 1453 1452 1452
1487 1488 1490 1491 1493 1494 1496 1497 1498 1498 1498 1498 1498 1497 1497 1495 1494 1493 1491 1489 1487 1485 1483 1481 1479 1477 1475 1473 1470 1468 1466 1463 1461 1459 1457 1455 1453 1452 1451 1449 1449 1448 1448
1485 1486 1488 1489 1491 1492 1493 1495 1495 1496 1496 1496 1496 1495 1494 1493 1492 1491 1489 1487 1485 1484 1482 1480 1477 1475 1473 1471 1469 1466 1464 1462 1460 1458 1455 1453 1451 1450 1448 1447 1445 1444 1443
1483 1484 1486 1487 1489 1490 1491 1492 1493 1494 1494 1494 1493 1492 1492 1490 1489 1488 1486 1485 1483 1481 1479 1477 1475 1473 1471 1469 1467 1465 1462 1460 1458 1456 1454 1452 1449 1448 1446 1444 1442 1441 1440
1481 1482 1484 1485 1487 1488 1489 1490 1491 1491 1491 1491 1490 1490 1488 1487 1486 1485 1483 1482 1480 1478 1476 1474 1473 1471 1469 1466 1464 1462 1460 1458 1456 1453 1451 1450 1448 1445 1444 1442 1440 1438 1437
1479 1481 1482 1483 1485 1486 1487 1488 1488 1488 1488 1488 1487 1486 1485 1484 1482 1481 1479 1478 1476 1474 1472 1471 1469 1467 1466 1464 1461 1460 1458 1455 1453 1451 1449 1447 1445 1443 1441 1439 1437 1436 1434
1477 1479 1480 1481 1483 1484 1484 1485 1485 1485 1485 1484 1483 1482 1481 1480 1478 1477 1475 1473 1472 1470 1468 1466 1464 1463 1462 1460 1458 1456 1454 1453 1451 1449 1447 1445 1443 1441 1439 1437 1435 1433 1432
1475 1476 1478 1479 1480 1481 1482 1482 1482 1482 1481 1481 1480 1478 1477 1475 1474 1472 1471 1469 1467 1465 1464 1462 1460 1459 1457 1456 1454 1453 1451 1450 1448 1446 1444 1443 1441 1439 1437 1435 1433 1431 1429
1472 1474 1475 1476 1477 1478 1479 1479 1479 1479 1478 1477 1476 1474 1473 1471 1469 1468 1466 1464 1463 1461 1459 1458 1456 1455 1453 1452 1451 1449 1448 1446 1445 1443 1442 1440 1438 1436 1434 1433 1431 1429 1427
1469 1470 1472 1473 1474 1475 1476 1476 1476 1475 1474 1473 1472 1470 1469 1467 1465 1464 1462 1461 1460 1458 1456 1454 1452 1451 1450 1448 1447 1446 1445 1443 1442 1441 1439 1437 1436 1434 1432 1430 1428 1427 1425